TimePDT,TemperatureF,Dew PointF,Humidity,Sea Level PressureIn,VisibilityMPH,Wind Direction,Wind SpeedMPH,Gust SpeedMPH,PrecipitationIn,Events,Conditions,WindDirDegrees,DateUTC
12:54 AM,55.0,53.1,93,30.04,8.0,Calm,Calm,-,N/A,,Overcast,0,2013-08-13 07:54:00
1:54 AM,54.0,53.1,97,30.03,7.0,Calm,Calm,-,N/A,,Overcast,0,2013-08-13 08:54:00
2:52 AM,53.6,53.6,100,30.00,2.5,Calm,Calm,-,N/A,,Mist,0,2013-08-13 09:52:00
2:54 AM,54.0,53.1,97,30.04,2.5,Calm,Calm,-,N/A,,Mist,0,2013-08-13 09:54:00
3:08 AM,53.6,53.6,100,30.00,1.2,Calm,Calm,-,N/A,,Mist,0,2013-08-13 10:08:00
3:39 AM,55.4,53.6,94,30.00,0.8,WSW,4.6,-,N/A,,Mist,250,2013-08-13 10:39:00
3:54 AM,55.0,54.0,96,30.03,0.8,SSW,3.5,-,N/A,,Mist,210,2013-08-13 10:54:00
4:54 AM,55.0,54.0,96,30.03,0.8,Calm,Calm,-,N/A,,Mist,0,2013-08-13 11:54:00
5:40 AM,55.4,53.6,94,29.99,2.0,Calm,Calm,-,N/A,,Mist,0,2013-08-13 12:40:00
5:54 AM,54.0,54.0,100,30.03,3.0,Calm,Calm,-,N/A,,Mist,0,2013-08-13 12:54:00
6:54 AM,54.0,53.1,97,30.03,6.0,Calm,Calm,-,N/A,,Mist,0,2013-08-13 13:54:00
7:54 AM,54.0,53.1,97,30.05,6.0,Calm,Calm,-,N/A,,Overcast,0,2013-08-13 14:54:00
8:01 AM,53.6,53.6,100,30.01,4.0,Calm,Calm,-,N/A,,Mist,0,2013-08-13 15:01:00
8:54 AM,55.9,54.0,93,30.05,6.0,Calm,Calm,-,N/A,,Mist,0,2013-08-13 15:54:00
9:54 AM,61.0,55.0,81,30.04,10.0,Variable,4.6,-,N/A,,Scattered Clouds,0,2013-08-13 16:54:00
10:54 AM,60.1,55.0,83,30.04,10.0,Variable,4.6,-,N/A,,Unknown,0,2013-08-13 17:54:00
11:42 AM,59.0,53.6,82,30.00,10.0,NW,6.9,-,N/A,,Scattered Clouds,310,2013-08-13 18:42:00
11:54 AM,60.1,54.0,80,30.04,10.0,NW,5.8,-,N/A,,Scattered Clouds,320,2013-08-13 18:54:00
12:03 PM,60.8,53.6,77,30.01,10.0,NW,5.8,-,N/A,,Mostly Cloudy,320,2013-08-13 19:03:00
12:45 PM,60.8,53.6,77,30.00,10.0,NW,8.1,-,N/A,,Scattered Clouds,310,2013-08-13 19:45:00
12:54 PM,61.0,54.0,78,30.04,10.0,NW,6.9,-,N/A,,Scattered Clouds,320,2013-08-13 19:54:00
1:54 PM,63.0,55.0,75,30.03,10.0,NW,8.1,-,N/A,,Clear,310,2013-08-13 20:54:00
2:54 PM,68.0,55.9,65,30.01,10.0,North,5.8,-,N/A,,Clear,360,2013-08-13 21:54:00
3:54 PM,66.9,55.0,66,30.01,10.0,WNW,8.1,-,N/A,,Clear,300,2013-08-13 22:54:00
4:54 PM,63.0,55.0,75,30.01,10.0,WNW,10.4,-,N/A,,Clear,300,2013-08-13 23:54:00
5:54 PM,62.1,54.0,75,30.02,10.0,West,6.9,-,N/A,,Clear,260,2013-08-14 00:54:00
6:54 PM,62.1,54.0,75,30.01,10.0,WSW,5.8,-,N/A,,Clear,250,2013-08-14 01:54:00
7:54 PM,61.0,53.1,75,30.02,10.0,SSW,8.1,-,N/A,,Clear,210,2013-08-14 02:54:00
8:54 PM,59.0,54.0,83,30.02,10.0,South,6.9,-,N/A,,Partly Cloudy,190,2013-08-14 03:54:00
9:54 PM,59.0,54.0,83,30.03,10.0,SW,6.9,-,N/A,,Clear,220,2013-08-14 04:54:00
10:54 PM,57.9,53.1,84,30.03,10.0,WSW,5.8,-,N/A,,Clear,240,2013-08-14 05:54:00
11:54 PM,57.9,53.1,84,30.03,10.0,South,3.5,-,N/A,,Clear,180,2013-08-14 06:54:00